Regional Weather Roundup
Issued by NWS

Home | Current Version | Previous Version | Text Only | Print | Product List | Glossary On
Versions: 1 2 3 4 5 6 7 8 9 10 11 12 13 14 15 16 17 18 19 20 21 22 23 24 25 26 27 28 29 30 31 32 33 34 35 36 37 38 39 40 41 42 43 44 45 46 47 48 49 50
000
ASUS43 KLMK 090710
RWRKY
KENTUCKY REGIONAL WEATHER ROUNDUP
NATIONAL WEATHER SERVICE LOUISVILLE KY
200 AM EST TUE FEB 09 2016

NOTE "FAIR" INDICATES FEW OR NO CLOUDS BELOW 12,000 FEET
WITH NO SIGNIFICANT WEATHER AND/OR OBSTRUCTIONS TO VISIBILITY.

KYZ001>023-026-027-061>063-070>075-090800-
WESTERN AND SOUTH CENTRAL KENTUCKY

CITY           SKY/WX    TMP DP  RH WIND       PRES   REMARKS
PADUCAH        CLOUDY    27  16  63 NW8       29.89F WCI  19
HENDERSON      CLOUDY    21  16  79 W14G20    29.87F WCI   8
OWENSBORO      FLURRIES  23  16  75 W10       29.87F WCI  12
HOPKINSVILLE   FLURRIES  25  19  79 NW8       29.87F WCI  16
BOWLING GREEN  LGT SNOW  24  18  77 NW7       29.87S WCI  16
GLASGOW        FLURRIES  22  18  84 W8        29.84S WCI  13
$$

KYZ024-025-028>034-038-045-046-053-090800-
NORTH CENTRAL KENTUCKY

CITY           SKY/WX    TMP DP  RH WIND       PRES   REMARKS
LOUISVILLE/SDF FLURRIES  23  15  71 W10       29.81F WCI  12
LOUISVILLE/LOU CLOUDY    22  14  71 W10       29.81F WCI  11
FORT KNOX      CLOUDY    21  14  76 W8        29.79F WCI  11
$$

KYZ035>037-039>044-047>052-055>060-089>105-090800-
NORTHEAST KENTUCKY

CITY           SKY/WX    TMP DP  RH WIND       PRES   REMARKS
LEXINGTON      PTCLDY    20  14  77 W12       29.75S WCI   8
COVINGTON      FLURRIES  21  16  81 W12       29.72F WCI   9
FRANKFORT      CLEAR     20  14  77 W7        29.76F WCI  11
$$

KYZ054-064>069-076>088-106>120-090800-
SOUTHEAST KENTUCKY

CITY           SKY/WX    TMP DP  RH WIND       PRES   REMARKS
JACKSON        CLOUDY    25  20  81 W5        29.70S WCI  19
LONDON         LGT SNOW  25  20  81 W12       29.74F WCI  14
SOMERSET       CLOUDY    23  18  80 W14       29.80S WCI  11
MIDDLESBORO    LGT SNOW  28  22  79 CALM      29.75S
MONTICELLO     FLURRIES  23  17  78 W16       29.81S WCI  10
$$




USA.gov is the U.S. government's official web portal to all federal, state and local government web resources and services.